Hourly Data Report for July 16, 2012

TIMMINS A
ONTARIO

48°34'14.000" N
81°22'36.000" W
294.70 m
6078286
71739
YTS

Download Data

Hourly Data (July 2012)
Hourly Data Report for July 16, 2012
TIME
LST
Temp Definition
°C
Dew Point Definition
°C
Rel Hum Definition
%
Precip. Amount Definition
mm

Wind Dir Definition
10's deg

Wind Spd Definition
km/h
Visibility Definition
km
Stn Press Definition
kPa
Hmdx Definition


Wind Chill Definition


Weather Definition


00:00 15.5 14.7 95   32 7 10.0 98.04     LegendNANA
01:00 14.6 14.0 96   34 8 10.0 98.05     Mainly Clear
02:00 12.7 12.2 97     0 10.0 98.02     LegendNANA
03:00 11.8 11.3 97     0 10.0 97.96     LegendNANA
04:00 11.0 10.7 98     0 1.6 97.95     Fog
05:00 11.2 10.9 98     0 0.8 97.93     Fog
06:00 12.4 12.3 99     0 1.0 97.92     Fog
07:00 14.2 14.1 99   18 4 8.1 97.91     Fog
08:00 17.0 16.4 96   13 4 10.0 97.91     LegendNANA
09:00 18.7 17.2 91   18 7 10.0 97.89     LegendNANA
10:00 20.4 16.7 79   20 9 10.0 97.81 25   Cloudy
11:00 19.1 17.5 90   24 5 10.0 97.81     Rain
12:00 17.6 15.4 87   26 9 10.0 97.80     LegendNANA
13:00 17.3 16.2 93   20 5 6.4 97.73     Rain, Fog
14:00 17.7 16.1 90   19 6 9.7 97.63     Rain, Fog
15:00 18.2 17.2 94   20 4 8.1 97.56     Rain, Fog
16:00 18.3 17.5 95   30 7 8.1 97.52     Rain, Fog
17:00 18.4 17.8 96     0 4.8 97.44     Rain, Fog
18:00 17.9 17.1 95   20 4 6.4 97.41     Rain, Fog
19:00 17.8 17.3 97   17 4 4.8 97.34     Rain, Fog
20:00 17.5 17.2 98   6 5 2.8 97.27     Rain, Fog
21:00 17.0 16.7 98   13 6 3.2 97.19     Rain, Fog
22:00 17.0 16.7 98   11 5 4.8 97.13     Rain, Fog
23:00 16.7 16.4 98     0 4.8 97.14     Rain, Fog

Notes on Data Quality.

Legend

  • E = Estimated
  • M = Missing
  • NA = Not Available*
  • [empty] = Indicates an unobserved value
Date modified: